GW4151 Weather Reports


time (UTC)temp
F
wind
direction
speed
knots
gust
knots
rain 1hr
in
rain 24hr
in
rain mn
in
humidity
%
barometer
mb
20260831022005 75 189 1.7 2.6 0.00 0.95 0.95 83 995.2
20260831020500 75 224 2.6 3.5 0.00 0.95 0.95 81 994.7
20260831014957 75 261 1.7 2.6 0.00 0.95 0.95 82 995.1
20260831013455 75 240 0.9 3.5 0.00 0.95 0.95 82 994.8
20260831011955 75 208 2.6 5.2 0.00 0.95 0.95 83 995.0
20260831010452 75 174 4.3 5.2 0.00 0.95 0.95 83 994.8
20260831004949 75 262 2.6 6.1 0.00 0.95 0.95 83 994.7
20260831003449 75 181 0.9 6.1 0.00 0.95 0.95 83 994.6
20260831001949 75 174 0.9 2.6 0.00 0.95 0.95 83 994.5
20260831000448 75 220 5.2 7.0 0.00 0.95 0.95 83 994.6
20260830234943 75 246 3.5 7.0 0.00 0.95 0.95 82 994.8
20260830233440 76 193 4.3 6.1 0.00 0.95 0.95 82 994.6
20260830231940 76 126 1.7 6.1 0.00 0.95 0.95 82 994.7
20260830230436 77 219 3.5 5.2 0.00 0.95 0.95 80 994.8
20260830224931 78 261 1.7 7.8 0.00 0.95 0.95 79 994.6
20260830223429 78 218 6.1 7.8 0.00 0.95 0.95 77 994.6
20260830221929 78 208 3.5 5.2 0.00 0.95 0.95 77 994.9
20260830220427 78 216 3.5 12.2 0.00 0.95 0.95 75 994.9
20260830214926 79 172 3.5 7.0 0.00 0.95 0.95 73 994.7
20260830213423 80 200 4.3 12.2 0.00 0.95 0.95 70 994.9
20260830211919 81 129 5.2 7.8 0.00 0.95 0.95 67 995.0
20260830210415 82 141 7.8 11.3 0.00 0.95 0.95 65 995.0
20260830204913 83 185 3.5 8.7 0.00 0.95 0.95 64 995.0
20260830203410 83 113 6.1 8.7 0.00 0.95 0.95 62 995.2
20260830201906 83 235 7.8 14.8 0.00 0.95 0.95 59 995.1
20260830200401 84 200 5.2 9.6 0.00 0.95 0.95 57 995.0
20260830194900 86 252 5.2 8.7 0.00 0.95 0.95 54 994.9
20260830193359 86 237 6.1 8.7 0.00 0.95 0.95 56 994.5
20260830191857 85 192 6.1 11.3 0.00 0.95 0.95 56 994.8
20260830190353 84 255 6.1 8.7 0.00 0.95 0.95 62 994.6
20260830184848 84 290 2.6 7.8 0.00 0.95 0.95 64 994.6
20260830183348 82 211 2.6 8.7 0.00 0.95 0.95 68 994.8
20260830181847 82 174 6.1 12.2 0.00 0.95 0.95 67 994.5
20260830180342 82 190 5.2 6.1 0.00 0.95 0.95 68 994.3
20260830174842 81 181 1.7 5.2 0.00 0.95 0.95 70 994.6
20260830173340 82 249 4.3 8.7 0.00 0.95 0.95 70 994.6
20260830171839 80 166 5.2 7.8 0.00 0.95 0.95 73 994.5
20260830170335 79 263 3.5 6.1 0.00 0.95 0.95 78 995.1
20260830164832 78 229 3.5 7.0 0.00 0.95 0.95 79 995.2
20260830163331 75 196 1.7 7.0 0.00 0.95 0.95 83 995.2
20260830161828 74 170 7.0 8.7 0.00 0.95 0.95 85 995.4
20260830160324 74 204 3.5 9.6 0.00 0.95 0.95 87 996.0
20260830154821 70 260 2.6 7.8 0.00 0.95 0.95 95 995.5
20260830153320 68 202 1.7 6.1 0.00 0.95 0.95 98 995.8
20260830151820 68 204 4.3 7.0 0.00 0.95 0.95 98 996.0
20260830150320 67 187 5.2 13.0 0.00 0.95 0.95 98 995.7
20260830144817 67 227 5.2 11.3 0.00 0.95 0.95 99 995.7
20260830143314 66 155 6.1 11.3 0.42 0.94 0.94 99 996.0
20260830141810 66 186 4.3 8.7 0.00 0.85 0.85 99 996.3
20260830140306 66 155 3.5 11.3 0.12 0.85 0.85 99 997.0
20260830134804 65 182 4.3 7.0 0.05 0.83 0.83 99 997.2
20260830133301 65 171 0.0 1.7 0.42 0.79 0.79 99 997.7
20260830131757 65 164 0.0 0.0 0.12 0.68 0.68 99 997.8
20260830130253 65 187 0.0 0.0 0.17 0.66 0.66 99 998.0
20260830124751 65 185 0.0 0.0 0.12 0.62 0.62 99 998.2
20260830123251 65 192 0.0 0.0 0.07 0.58 0.58 99 997.8
20260830121750 65 24 2.6 2.6 0.38 0.54 0.54 99 998.2
20260830120247 65 168 0.0 0.0 0.12 0.46 0.46 99 998.0
20260830114747 65 164 0.0 0.0 0.38 0.41 0.41 99 997.6
20260830113243 65 146 0.9 0.9 0.19 0.34 0.34 98 997.9
20260830111743 65 207 0.9 1.7 0.12 0.29 0.29 98 997.8
20260830110240 65 282 1.7 1.7 0.00 0.27 0.27 97 996.8
20260830104738 66 205 0.0 0.0 0.05 0.24 0.24 96 996.8
20260830103235 66 173 1.7 5.2 0.12 0.23 0.23 93 996.5
20260830101731 66 195 1.7 7.8 0.00 0.21 0.21 93 996.1
20260830100226 66 162 5.2 7.0 0.07 0.21 0.21 94 995.2
20260830094722 66 162 3.5 5.2 0.19 0.19 0.19 94 995.5
20260830093221 68 169 4.3 6.1 0.05 0.11 0.11 89 995.7
20260830091719 67 152 2.6 7.8 0.00 0.10 0.10 89 996.2
20260830090214 67 227 3.5 6.1 0.00 0.10 0.10 93 996.1
20260830084710 66 213 1.7 3.5 0.00 0.10 0.10 97 996.9
20260830083208 66 180 0.0 0.0 0.19 0.10 0.10 95 996.8
20260830081704 67 159 1.7 3.5 0.00 0.02 0.02 92 997.2
20260830080200 67 168 0.9 5.2 0.00 0.02 0.02 92 997.0
20260830074656 68 153 1.7 2.6 0.14 0.02 0.02 92 996.9
20260830073155 68 195 0.0 3.5 0.00 0.00 0.00 91 996.7
20260830071651 67 176 0.0 0.0 0.00 0.00 0.00 92 996.9
20260830070151 67 181 0.0 0.0 0.00 0.00 0.00 92 997.1
20260830064648 68 165 0.0 0.0 0.00 0.00 0.00 92 997.5
20260830063143 68 182 0.0 0.0 0.00 0.00 0.00 92 997.4
20260830061638 67 176 0.0 0.0 0.00 0.00 0.00 92 997.6
20260830060133 67 171 0.0 0.0 0.00 0.00 0.00 94 997.8
20260830054631 67 175 0.0 0.0 0.00 0.00 0.00 93 997.8
20260830053127 68 197 0.0 0.0 0.00 0.00 0.00 91 997.9
20260830051624 68 149 0.9 1.7 0.00 0.00 0.00 91 997.7
20260830050120 68 211 0.9 1.7 0.00 0.00 0.00 92 997.4
20260830044618 68 168 0.0 0.9 0.00 0.00 0.00 93 997.5
20260830043114 67 169 0.9 0.9 0.00 0.00 0.00 94 997.5
20260830041611 68 171 0.0 0.9 0.00 0.00 0.00 94 997.5
20260830040108 68 138 0.9 1.7 0.00 0.02 0.02 94 997.6
20260830034603 68 176 0.0 0.0 0.00 0.02 0.02 95 997.8
20260830033058 68 174 0.0 0.0 0.00 0.02 0.02 95 997.8
20260830031553 68 174 0.0 0.0 0.00 0.01 0.01 94 997.8
20260830030051 69 181 0.0 1.7 0.00 0.01 0.01 92 998.0
20260830024551 69 180 0.0 0.9 0.00 0.01 0.01 92 998.1
20260830023049 70 176 0.9 5.2 0.00 0.00 0.00 88 997.9